Location: 761 Underwood Rd, Vestal, NY 13850, USA
(42.0046°N, 76.0259°W)
Time: 08:25:39
(UTC-04:00)

ISS - Pass Details

Date: 23 March 2019
Orbit: 408 x 410 km, 51.6° (Epoch: 18 April)

Event Time Altitude Azimuth Distance (km) Brightness Sun altitude
Rises 21:28:10 0° 266° (W) 2,330 1.0 -23.9°
Reaches altitude 10° 21:30:28 10° 279° (W) 1,471 0.0 -24.3°
Enters shadow 21:33:14 26° 336° (NNW) 843 -1.8 -24.7°
